Date String (YYYY-MM-DD hh:mm:ss) UTC,Instrument flags,Ambient pressure (hPa),Sample flow (lpm),Bypass flow (lpm),Sample temperature (°C),Ambient temperature (°C),ASC tube jacket temperature (°C),LED temperature (°C),Box temperature (°C),Sample RH (%),Span deviation,Mass concentration (μg/m³),Mass concentration (μg/m³),Mass concentration (μg/m³)
DateTimeUTC,F1_M11,P_M11,Q1_M11,Q2_M11,T1_M11,T2_M11,T3_M11,T4_M11,T5_M11,U1_M11,ZSPAN_M11,X0_M11,X2_M11,X1_M11
2022-05-12 18:00:00,,0821.2,5.00,0.00,29.4,28.4,00.0,38.4,31.1,03.6,0000.0,0015.38,0003.88,0001.69
2022-05-12 18:01:00,,0821.3,4.99,0.00,29.4,28.4,00.0,38.4,31.1,04.2,0000.0,0014.81,0003.93,0001.71
2022-05-12 18:02:00,,0821.3,4.99,0.00,29.4,28.4,00.0,38.4,31.1,04.0,0000.0,0014.56,0003.95,0001.73
2022-05-12 18:03:00,,0821.1,5.00,0.00,29.4,28.4,00.0,38.4,31.1,03.7,0000.0,0015.35,0003.92,0001.74
2022-05-12 18:04:00,,0821.3,4.99,0.00,29.4,28.3,00.0,38.4,31.1,03.4,0000.0,0015.96,0003.91,0001.76
2022-05-12 18:05:00,,0821.3,5.02,0.00,29.4,28.3,00.0,38.4,31.1,03.5,0000.0,0016.08,0003.94,0001.76
2022-05-12 18:06:00,,0821.3,4.99,0.00,29.4,28.3,00.0,38.4,31.1,03.5,0000.0,0015.75,0003.99,0001.77
2022-05-12 18:07:00,,0821.2,5.00,0.00,29.3,28.3,00.0,38.3,31.1,03.6,0000.0,0014.94,0003.95,0001.76
2022-05-12 18:08:00,,0821.3,5.01,0.00,29.3,28.2,00.0,38.3,31.1,03.4,0000.0,0014.90,0003.97,0001.78
2022-05-12 18:09:00,,0821.4,5.01,0.00,29.3,28.3,00.0,38.3,31.0,03.3,0000.0,0014.17,0003.99,0001.79
2022-05-12 18:10:00,,0821.3,5.00,0.00,29.3,28.3,00.0,38.3,31.1,03.6,0000.0,0014.75,0004.01,0001.82
2022-05-12 18:11:00,,0821.2,4.99,0.00,29.3,28.3,00.0,38.3,31.0,03.4,0000.0,0015.02,0004.04,0001.83
2022-05-12 18:12:00,,0821.2,5.02,0.00,29.3,28.3,00.0,38.3,31.0,03.6,0000.0,0015.39,0004.04,0001.82
2022-05-12 18:13:00,,0821.2,5.00,0.00,29.3,28.2,00.0,38.3,30.9,03.7,0000.0,0015.70,0003.98,0001.83
2022-05-12 18:14:00,,0821.1,5.00,0.00,29.2,28.0,00.0,38.3,30.8,03.9,0000.0,0014.39,0004.00,0001.84
2022-05-12 18:15:00,,0821.2,4.99,0.00,29.1,28.0,00.0,38.3,30.8,03.6,0000.0,0013.71,0003.98,0001.85
2022-05-12 18:16:00,,0821.2,5.00,0.00,29.1,27.9,00.0,38.2,30.8,03.7,0000.0,0014.02,0003.92,0001.83
2022-05-12 18:17:00,,0821.2,5.00,0.00,29.1,27.9,00.0,38.2,30.8,03.7,0000.0,0015.15,0003.86,0001.83
2022-05-12 18:18:00,,0821.3,5.01,0.00,29.0,27.8,00.0,38.2,30.6,03.6,0000.0,0014.73,0003.84,0001.83
2022-05-12 18:19:00,,0821.2,4.99,0.00,29.0,27.7,00.0,38.2,30.6,03.8,0000.0,0014.08,0003.82,0001.81
2022-05-12 18:20:00,,0821.2,4.99,0.00,28.9,27.7,00.0,38.1,30.6,04.1,0000.0,0014.07,0003.81,0001.81
2022-05-12 18:21:00,,0821.2,5.00,0.00,28.9,27.8,00.0,38.1,30.6,04.0,0000.0,0013.52,0003.86,0001.81
2022-05-12 18:22:00,,0821.3,5.00,0.00,28.9,27.8,00.0,38.1,30.6,04.3,0000.0,0013.37,0003.89,0001.81
2022-05-12 18:23:00,,0821.3,5.00,0.00,28.9,27.9,00.0,38.1,30.6,04.0,0000.0,0012.99,0003.84,0001.83
2022-05-12 18:24:00,,0821.3,5.00,0.00,28.9,27.9,00.0,38.1,30.5,03.8,0000.0,0012.36,0003.84,0001.83
2022-05-12 18:25:00,,0821.2,5.00,0.00,28.9,27.9,00.0,38.0,30.5,03.9,0000.0,0012.54,0003.87,0001.80
2022-05-12 18:26:00,,0821.3,5.01,0.00,28.9,27.9,00.0,38.0,30.6,04.0,0000.0,0013.47,0003.85,0001.79
2022-05-12 18:27:00,,0821.3,4.98,0.00,28.9,28.0,00.0,38.0,30.6,04.0,0000.0,0013.99,0003.90,0001.79
2022-05-12 18:28:00,,0821.4,5.01,0.00,28.9,28.0,00.0,38.0,30.6,03.9,0000.0,0012.57,0003.92,0001.79
2022-05-12 18:29:00,,0821.3,4.99,0.00,28.9,28.0,00.0,38.0,30.6,04.3,0000.0,0011.92,0003.97,0001.80
2022-05-12 18:30:00,,0821.3,5.01,0.00,28.9,28.0,00.0,38.0,30.7,03.9,0000.0,0012.06,0004.03,0001.80
2022-05-12 18:31:00,,0821.1,5.00,0.00,29.0,28.1,00.0,38.0,30.7,04.4,0000.0,0012.34,0004.03,0001.80
2022-05-12 18:32:00,,0821.2,5.00,0.00,29.0,28.1,00.0,38.0,30.7,04.2,0000.0,0012.34,0004.03,0001.80
2022-05-12 18:33:00,,0821.2,4.99,0.00,29.0,28.1,00.0,38.0,30.7,04.0,0000.0,0012.63,0004.03,0001.77
2022-05-12 18:34:00,,0821.1,5.02,0.00,29.0,28.1,00.0,38.0,30.8,04.2,0000.0,0013.02,0004.09,0001.77
2022-05-12 18:35:00,,0821.2,4.99,0.00,29.0,28.1,00.0,38.0,30.8,04.4,0000.0,0013.20,0004.14,0001.75
2022-05-12 18:36:00,,0821.3,5.00,0.00,29.0,28.1,00.0,38.0,30.8,04.4,0000.0,0012.96,0004.11,0001.74
2022-05-12 18:37:00,,0821.3,5.00,0.00,29.0,28.1,00.0,38.0,30.8,04.1,0000.0,0012.28,0004.05,0001.73
2022-05-12 18:38:00,,0821.4,5.00,0.00,29.0,28.1,00.0,38.0,30.8,04.2,0000.0,0011.47,0003.99,0001.72
2022-05-12 18:39:00,,0821.4,5.00,0.00,29.1,28.1,00.0,38.0,30.8,04.4,0000.0,0011.85,0003.97,0001.71
2022-05-12 18:40:00,,0821.4,5.00,0.00,29.1,28.1,00.0,38.0,30.8,04.2,0000.0,0012.32,0003.93,0001.69
2022-05-12 18:41:00,,0821.4,5.01,0.00,29.1,28.1,00.0,38.0,30.8,04.2,0000.0,0012.34,0003.89,0001.66
2022-05-12 18:42:00,,0821.5,5.01,0.00,29.1,28.1,00.0,38.0,30.8,03.9,0000.0,0012.71,0003.86,0001.65
2022-05-12 18:43:00,,0821.5,4.99,0.00,29.1,28.1,00.0,38.0,30.8,04.2,0000.0,0012.82,0003.84,0001.63
2022-05-12 18:44:00,,0821.4,5.00,0.00,29.1,28.1,00.0,38.0,30.8,04.6,0000.0,0012.49,0003.75,0001.62
2022-05-12 18:45:00,,0821.4,5.01,0.00,29.1,28.1,00.0,38.0,30.8,04.3,0000.0,0011.99,0003.69,0001.60
2022-05-12 18:46:00,,0821.3,5.00,0.00,29.1,28.1,00.0,38.0,30.8,04.3,0000.0,0011.86,0003.66,0001.59
2022-05-12 18:47:00,,0821.4,5.00,0.00,29.1,28.0,00.0,38.0,30.8,04.4,0000.0,0012.13,0003.67,0001.60
2022-05-12 18:48:00,,0821.3,5.01,0.00,29.1,28.0,00.0,38.0,30.8,04.4,0000.0,0012.08,0003.77,0001.61
2022-05-12 18:49:00,,0821.4,5.00,0.00,29.1,28.0,00.0,38.0,30.8,04.4,0000.0,0012.31,0003.82,0001.61
2022-05-12 18:50:00,,0821.5,4.99,0.00,29.1,28.0,00.0,38.0,30.8,04.4,0000.0,0013.02,0003.85,0001.62
2022-05-12 18:51:00,,0821.6,4.99,0.00,29.1,28.0,00.0,38.0,30.8,04.1,0000.0,0013.22,0003.79,0001.61
2022-05-12 18:52:00,,0821.6,5.00,0.00,29.0,28.0,00.0,38.0,30.8,04.2,0000.0,0013.47,0003.80,0001.63
2022-05-12 18:53:00,,0821.5,4.99,0.00,29.1,28.0,00.0,38.0,30.8,04.5,0000.0,0013.31,0003.83,0001.64
2022-05-12 18:54:00,,0821.7,5.01,0.00,29.0,28.0,00.0,38.0,30.8,04.4,0000.0,0012.45,0003.83,0001.65
2022-05-12 18:55:00,,0821.7,5.01,0.00,29.0,28.0,00.0,38.0,30.8,04.2,0000.0,0012.69,0003.90,0001.66
2022-05-12 18:56:00,,0821.7,4.99,0.00,29.0,28.0,00.0,38.0,30.8,04.3,0000.0,0012.65,0003.89,0001.66
2022-05-12 18:57:00,,0821.7,5.01,0.00,29.0,28.0,00.0,38.0,30.7,04.2,0000.0,0013.27,0003.86,0001.66
2022-05-12 18:58:00,,0821.6,4.99,0.00,29.0,28.0,00.0,38.0,30.8,04.6,0000.0,0013.11,0003.88,0001.67
2022-05-12 18:59:00,,0821.7,5.00,0.00,29.0,28.0,00.0,38.0,30.7,04.4,0000.0,0012.80,0003.82,0001.66
